Location: Lake Almanor
(40.2485°N, 121.1442°W)
Time: 11:56:17
(UTC-08:00)

N. Korean satellite - Pass Details

Date: 28 January 2020
Orbit: 456 x 506 km, 97.2° (Epoch: 17 February)

Event Time Altitude Azimuth Distance (km) Brightness Sun altitude
Rises 18:01:23 0° 206° (SSW) 2,458 10.8 -8.6°
Reaches altitude 10° 18:04:06 10° 231° (SW) 1,592 10.4 -9.1°
Maximum altitude 18:06:07 15° 267° (W) 1,328 10.1 -9.5°
Drops below altitude 10° 18:08:08 10° 303° (WNW) 1,604 9.8 -9.8°
Sets 18:10:54 0° 328° (NNW) 2,490 10.4 -10.4°
